#timestamp,LO_Frequency,Hit,StdDev 
1582945215.5,286046998.0,N
1582945235.4,286046997.0,N
1582945255.2,286046997.7,N
1582945275.0,286046997.2,N
1582945275.9,286046997.2,N
1582945295.8,286046999.2,N
1582945315.6,286046998.7,N
1582945335.5,286046996.6,N
1582945355.3,286046997.3,N
1582945375.1,286046997.3,N
1582945395.9,286046996.5,N
1582945415.7,286046999.5,N
1582945435.5,286046996.5,N
1582945455.4,286046998.8,N
1582945475.2,286046998.3,N
1582945495.0,286047001.1,N
1582945496.0,286047001.1,N
1582945515.8,286047001.0,N
1582945535.6,286047000.6,N
1582945555.5,286047000.8,N
1582945575.3,286047000.6,N
1582945595.1,286047000.5,N
1582945615.9,286047000.4,N
1582945635.7,286047001.1,N
1582945655.6,286047000.4,N
1582945675.4,286047000.7,N
1582945695.2,286047000.8,N
1582945715.1,286046999.7,N
1582945716.0,286046999.7,N
1582945735.8,286047000.7,N
1582945785.7,286046998.7,E
1582945795.6,286046998.9,N
1582945815.4,286046999.3,P
1582945835.3,286046996.5,P
1582945855.1,286046996.7,N
1582945875.9,286046999.0,N
1582945895.7,286047000.4,N
1582945915.5,286047001.0,N
1582945935.4,286046998.5,N
1582945955.2,286046999.3,N
1582945975.0,286046996.6,N
1582945976.0,286046996.6,N
1582945995.8,286046999.4,N
1582946015.6,286046998.2,N
1582946035.5,286046998.1,N
1582946055.3,286047000.5,N
1582946075.1,286047000.1,N
1582946095.9,286047002.7,N
1582946115.7,286046998.2,N
1582946135.6,286046996.6,N
1582946155.4,286046997.4,N
1582946175.2,286046996.7,N
1582946195.1,286046995.4,N
1582946196.0,286046995.4,N
1582946215.8,286046997.8,N
1582946235.6,286046995.2,N
1582946255.5,286046995.4,N
1582946275.3,286046995.7,N
1582946295.2,286046997.6,N
1582946315.9,286046997.3,N
1582946335.7,286046997.7,N
1582946355.6,286046997.6,N
1582946375.4,286046999.5,N
1582946395.3,286046996.6,N
1582946415.1,286046999.1,N
1582946416.0,286046999.1,N
1582946435.8,286046999.2,N
1582946455.7,286046998.5,N
1582946475.5,286046996.7,N
1582946495.3,286046997.2,N
1582946515.2,286046999.6,N
1582946535.0,286046995.3,N
1582946535.9,286046995.3,N
1582946555.8,286046998.0,N
1582946575.6,286046997.1,N
1582946595.4,286046997.1,N
1582946615.3,286046998.0,N
1582946635.1,286046996.2,N
1582946655.9,286046998.0,N
1582946675.7,286046995.0,Y
1582946695.5,286046998.3,P
1582946715.4,286047000.9,N
1582946735.2,286047000.8,N
1582946755.0,286047000.7,N
1582946756.0,286047000.7,N
1582946775.8,286047002.7,N
1582946795.6,286047000.9,N
1582946815.5,286047000.7,N
1582946835.3,286046998.2,N
1582946855.1,286046998.6,N
1582946875.9,286046998.6,N
1582946895.7,286047000.2,N
1582946915.6,286047000.9,N
1582946935.4,286047001.1,N
1582946955.2,286047000.4,N
1582946975.1,286047000.0,N
1582946976.0,286047000.0,N
1582946995.8,286047000.0,N
1582947015.6,286047000.1,N
1582947035.5,286046999.9,N
1582947055.3,286047001.7,N
1582947075.2,286047001.7,N
1582947095.9,286047004.1,Y
1582947115.7,286047001.4,P
1582947135.6,286047002.0,P
1582947155.4,286047004.4,P
1582947175.3,286047002.0,N
1582947195.1,286047001.8,N
1582947196.0,286047001.8,N
1582947215.8,286047002.4,N
1582947235.7,286047001.1,N
1582947255.5,286046998.2,N
1582947275.3,286047001.2,N
1582947295.2,286047000.8,N
1582947315.0,286046999.0,N
1582947315.9,286046999.0,N
1582947335.8,286047000.2,N
1582947355.6,286047000.1,N
1582947375.4,286047002.8,N
1582947395.3,286047002.2,N
1582947415.1,286046999.8,N
1582947435.9,286047001.9,N
1582947455.7,286047001.3,N
1582947475.5,286047004.0,N
1582947495.4,286047004.2,N
1582947515.2,286047000.6,N
1582947535.0,286047000.8,N
1582947535.9,286047000.8,N
1582947555.8,286047001.2,N
1582947575.6,286046998.4,N
1582947595.5,286046999.2,N
1582947615.3,286046997.6,N
1582947635.1,286046995.5,N
1582947655.9,286046995.1,N
1582947675.7,286046995.5,N
1582947695.6,286046995.2,N
1582947715.4,286046996.3,N
1582947735.2,286046995.1,N
1582947755.1,286046997.4,N
1582947756.0,286046997.4,N
1582947775.8,286046997.4,N
1582947795.6,286046996.6,N
1582947815.5,286046998.4,N
1582947835.3,286046999.0,N
1582947855.2,286046998.7,N
1582947875.9,286046998.9,N
1582947895.7,286046996.5,N
1582947915.6,286046998.5,N
1582947935.4,286047001.0,N
1582947955.2,286046998.6,N
1582947975.1,286047000.3,N
1582947976.0,286047000.3,N
1582947995.8,286046998.7,N
1582948015.7,286047001.1,N
1582948035.5,286047000.9,N
1582948055.3,286046998.5,N
1582948075.2,286047001.0,N
1582948095.0,286047000.2,N
1582948095.9,286047000.2,N
1582948115.8,286047002.5,N
1582948135.6,286047002.5,N
1582948155.4,286047001.9,N
1582948175.3,286047002.4,N
1582948225.1,286047003.9,E
1582948235.1,286047000.8,N
1582948236.0,286047000.8,P
1582948255.8,286046997.2,P
1582948275.6,286046997.5,N
1582948295.5,286046996.7,N
1582948315.3,286046997.0,N
1582948335.2,286046996.9,N
1582948355.9,286046996.7,N
1582948375.7,286046995.1,N
1582948395.6,286046997.2,N
1582948415.4,286046997.8,N
1582948435.2,286046999.6,N
1582948455.1,286046998.9,N
1582948456.0,286046998.9,N
1582948475.8,286046998.4,N
1582948495.7,286047000.0,N
1582948515.5,286046998.5,N
1582948535.3,286046998.1,N
1582948555.2,286047000.7,N
1582948575.0,286046998.2,N
1582948575.9,286046998.2,N
1582948595.8,286046998.4,N
1582948615.6,286046998.7,N
1582948635.4,286047000.9,N
1582948655.3,286047000.7,N
1582948675.1,286047000.3,N
1582948695.8,286047000.4,N
1582948715.7,286047002.8,N
1582948735.5,286047001.3,N
1582948755.4,286047002.1,N
1582948775.2,286046999.8,N
1582948795.0,286047000.2,N
1582948795.9,286047000.2,N
